Change the Weather History Date:

Saturday, October 27, 2012

  Actual Average (VTBD) Record (VTBD)
Temperature  
Mean Temperature 86 °F -  
Max Temperature 95 °F 89 °F 97 °F (2012)
Min Temperature 78 °F 72 °F 73 °F (2004)
Cooling Degree Days 22    
Growing Degree Days 36 (Base 50)    
Moisture  
Dew Point 70 °F    
Average Humidity 58    
Maximum Humidity 85    
Minimum Humidity 41    
Precipitation  
Precipitation 0.00 in 0.10 in - ()
Sea Level Pressure  
Sea Level Pressure 29.77 in    
Wind  
Wind Speed 6 mph ()    
Max Wind Speed 14 mph    
Max Gust Speed 24 mph    
Visibility 6.1 miles    
Events      
Averages and records for this station are not official NWS values.
T = Trace of Precipitation, MM = Missing Value Source: Averaged Metar Reports

Daily Weather History Graph

Daily Weather History Graph

Search for Another Location

Airport or City:

Trip Planner

Search our weather history database for the weather conditions in past years. The results will help you decide how hot, cold, wet, or windy it might be!

Date:

Astronomy

Oct. 27, 2012 Rise Set
Actual Time 6:08 AM ICT 5:50 PM ICT
Civil Twilight 5:47 AM ICT 6:12 PM ICT
Nautical Twilight 5:21 AM ICT 6:37 PM ICT
Astronomical Twilight 4:56 AM ICT 7:02 PM ICT
Moon 4:05 PM ICT (10/27) 3:53 AM ICT (10/27)
Length of Visible Light 12h 25m
Length of Day
11h 42m
Waxing Gibbous, 94% of the Moon is Illuminated
Oct 27
Waxing Gibbous
Oct 30
Full
Nov 7
Last Quarter
Nov 14
New
Nov 20
First Quarter

Hourly Weather History & Observations

Time (ICT) Temp. Heat Index Dew Point Humidity Pressure Visibility Wind Dir Wind Speed Gust Speed Precip Events Conditions
12:00 AM 86.0 °F 91.8 °F 71.6 °F 62% 29.80 in 6.2 mi East 6.9 mph 19.6 mph N/A   Scattered Clouds
12:30 AM 86.0 °F 91.8 °F 71.6 °F 62% 29.80 in 6.2 mi East 8.1 mph - N/A   Scattered Clouds
1:00 AM 82 °F - 74 °F 70% 29.77 in 5 mi Calm Calm - -   Mist
1:00 AM 86.0 °F 90.4 °F 69.8 °F 58% 29.77 in 6.2 mi East 6.9 mph - N/A   Scattered Clouds
1:30 AM 84.2 °F 89.6 °F 71.6 °F 66% 29.77 in - SE 4.6 mph - N/A   Clear
2:00 AM 86.0 °F 91.8 °F 71.6 °F 62% 29.77 in - East 5.8 mph - N/A   Clear
2:30 AM 84.2 °F 89.6 °F 71.6 °F 66% 29.77 in - ENE 3.5 mph - N/A   Clear
3:00 AM 84.2 °F 89.6 °F 71.6 °F 66% 29.74 in - NE 3.5 mph - N/A   Clear
3:30 AM 82.4 °F 88.2 °F 73.4 °F 74% 29.74 in - ENE 4.6 mph - N/A   Clear
4:00 AM 80.6 °F 85.4 °F 73.4 °F 79% 29.74 in - NNE 4.6 mph - N/A   Clear
4:30 AM 78.8 °F - 73.4 °F 83% 29.77 in - NNW 4.6 mph - N/A   Clear
5:00 AM 78.8 °F - 73.4 °F 83% 29.77 in - North 3.5 mph - N/A   Clear
5:30 AM 78.8 °F - 73.4 °F 83% 29.77 in - North 3.5 mph - N/A   Clear
6:00 AM 78.8 °F - 73.4 °F 83% 29.80 in 5.6 mi NNE 2.3 mph - N/A   Unknown
6:30 AM 80.6 °F 85.4 °F 73.4 °F 79% 29.80 in 5.6 mi NE 3.5 mph - N/A   Scattered Clouds
7:00 AM 79 °F - 75 °F 85% 29.79 in 5 mi Calm Calm - -   Mist
7:00 AM 80.6 °F 85.4 °F 73.4 °F 79% 29.80 in 5.6 mi NNE 4.6 mph - N/A   Unknown
7:30 AM 82.4 °F 89.5 °F 75.2 °F 79% 29.80 in - North 5.8 mph - N/A   Clear
8:00 AM 84.2 °F 92.3 °F 75.2 °F 74% 29.83 in 6.2 mi North 5.8 mph - N/A   Scattered Clouds
8:30 AM 87.8 °F 92.6 °F 69.8 °F 55% 29.83 in 6.2 mi ENE 11.5 mph - N/A   Scattered Clouds
9:00 AM 87.8 °F 92.6 °F 69.8 °F 55% 29.83 in 6.2 mi ENE 11.5 mph - N/A   Scattered Clouds
9:30 AM 87.8 °F 93.8 °F 71.6 °F 58% 29.83 in 6.2 mi ENE 11.5 mph - N/A   Scattered Clouds
10:00 AM 89.6 °F 94.7 °F 69.8 °F 52% 29.83 in 6.2 mi ENE 11.5 mph - N/A   Scattered Clouds
10:30 AM 89.6 °F 93.4 °F 68.0 °F 49% 29.83 in 6.2 mi East 13.8 mph - N/A   Scattered Clouds
11:00 AM 91.4 °F 94.0 °F 66.2 °F 43% 29.80 in 6.2 mi East 13.8 mph - N/A   Scattered Clouds
11:30 AM 91.4 °F 95.4 °F 68.0 °F 46% 29.77 in 6.2 mi ENE 12.7 mph 24.2 mph N/A   Scattered Clouds
12:00 PM 91.4 °F 96.8 °F 69.8 °F 49% 29.77 in 6.2 mi ENE 9.2 mph - N/A   Scattered Clouds
12:30 PM 91.4 °F 95.4 °F 68.0 °F 46% 29.74 in 6.2 mi ENE 6.9 mph - N/A   Scattered Clouds
1:00 PM 94 °F - 73 °F 42% 29.73 in 7 mi ENE 6.9 mph - -   Scattered Clouds
1:00 PM 91.4 °F 96.8 °F 69.8 °F 49% 29.74 in 6.2 mi East 8.1 mph 21.9 mph N/A   Scattered Clouds
1:30 PM 91.4 °F 96.8 °F 69.8 °F 49% 29.74 in 6.2 mi East 10.4 mph - N/A   Scattered Clouds
2:00 PM 91.4 °F 96.8 °F 69.8 °F 49% 29.71 in 6.2 mi East 10.4 mph - N/A   Scattered Clouds
3:00 PM 91.4 °F 95.4 °F 68.0 °F 46% 29.71 in 6.2 mi East 10.4 mph - N/A   Scattered Clouds
3:30 PM 91.4 °F 94.0 °F 66.2 °F 43% 29.71 in 6.2 mi East 11.5 mph - N/A   Scattered Clouds
4:00 PM 91.4 °F 95.4 °F 68.0 °F 46% 29.71 in 6.2 mi East 9.2 mph - N/A   Scattered Clouds
4:30 PM 91.4 °F 94.0 °F 66.2 °F 43% 29.71 in 6.2 mi East 8.1 mph - N/A   Scattered Clouds
5:00 PM 91.4 °F 94.0 °F 66.2 °F 43% 29.71 in 6.2 mi East 9.2 mph - N/A   Scattered Clouds
5:30 PM 91.4 °F 93.2 °F 64.4 °F 41% 29.71 in 6.2 mi ENE 8.1 mph - N/A   Scattered Clouds
6:00 PM 91.4 °F 93.2 °F 64.4 °F 41% 29.74 in 6.2 mi ENE 5.8 mph - N/A   Scattered Clouds
6:30 PM 89.6 °F 92.2 °F 66.2 °F 46% 29.74 in 6.2 mi ENE 5.8 mph - N/A   Scattered Clouds
7:00 PM 88 °F - 72 °F 49% 29.74 in 7 mi Calm Calm - -   Clear
7:00 PM 89.6 °F 91.1 °F 64.4 °F 43% 29.77 in 6.2 mi ENE 6.9 mph - N/A   Scattered Clouds
7:30 PM 87.8 °F 91.4 °F 68.0 °F 52% 29.77 in 6.2 mi NE 3.5 mph - N/A   Scattered Clouds
8:00 PM 87.8 °F 90.4 °F 66.2 °F 49% 29.77 in 6.2 mi North 2.3 mph - N/A   Scattered Clouds
8:30 PM 87.8 °F 90.4 °F 66.2 °F 49% 29.80 in 6.2 mi Variable 2.3 mph - N/A   Scattered Clouds
9:00 PM 86.0 °F 89.4 °F 68.0 °F 55% 29.80 in 6.2 mi Variable 2.3 mph - N/A   Scattered Clouds
9:30 PM 86.0 °F 89.4 °F 68.0 °F 55% 29.80 in 6.2 mi North 2.3 mph - N/A   Scattered Clouds
10:00 PM 86.0 °F 89.4 °F 68.0 °F 55% 29.80 in 6.2 mi North 3.5 mph - N/A   Scattered Clouds
10:30 PM 86.0 °F 89.4 °F 68.0 °F 55% 29.80 in 6.2 mi NNE 4.6 mph - N/A   Scattered Clouds
11:00 PM 84.2 °F 88.4 °F 69.8 °F 62% 29.80 in 6.2 mi NNE 5.8 mph - N/A   Scattered Clouds
11:30 PM 82.4 °F 86.3 °F 69.8 °F 66% 29.80 in 6.2 mi NE 2.3 mph - N/A   Scattered Clouds